Location: Unspecified
(41.1637°N, 24.2901°E)
Time: 22:42:07
(UTC+02:00)

ISS - Pass Details

Date: 31 May 2023
Orbit: 411 x 419 km, 51.6° (Epoch: 06 June)

Event Time Altitude Azimuth Distance (km) Brightness Sun altitude
Rises 20:23:32 0° 303° (WNW) 2,353 2.8 -6.4°
Reaches altitude 10° 20:25:38 10° 300° (WNW) 1,489 0.8 -6.7°
Maximum altitude 20:28:56 63° 219° (SW) 467 -3.5 -7.2°
Drops below altitude 10° 20:32:14 10° 138° (SE) 1,485 -1.6 -7.7°
Enters shadow 20:32:15 10° 138° (SE) 1,490 -1.6 -7.7°
